Volver al catálogo

SIMORGH NO. 7 STAGE 2

ActivoLEO
NORAD 58851·ROCKET BODY·🇮🇷 Iran
Este nombre de satélite aún no ha sido confirmado por fuentes oficiales.

Lanzado Jan 28, 2024 desde Semnan Space Center

Loading…

Próximos Pases (próximas 24 horas)

TLE

ActualizadoSource: Space-Track

Época: Sep 14, 2026, 23:16 UTC

1 58851U 24018C   26257.97012176  .00001078  00000-0  14030-3 0  9994
2 58851  58.6845 267.8681 0418443 213.7787 143.5933 14.41426819138237

Sigue SIMORGH NO. 7 STAGE 2 en tiempo real con AllMySat

Download on the App Store